Location: Beneden-Haastrecht
(52.0012°N, 4.7557°E)
Time: 03:00:29
(UTC+00:00)

Cosmos 1818 - Pass Details

Date: 24 October 2020
Orbit: 775 x 798 km, 65.0° (Epoch: 27 November)

Event Time Altitude Azimuth Distance (km) Brightness Sun altitude
Rises 17:47:31 0° 235° (SW) 3,276 7.8 -12.9°
Reaches altitude 10° 17:49:58 10° 240° (WSW) 2,353 7.1 -13.3°
Maximum altitude 17:55:19 58° 319° (NW) 928 4.1 -14.1°
Drops below altitude 10° 18:00:43 10° 39° (NE) 2,378 5.7 -15.0°
Enters shadow 18:01:01 - 39° (NE) 2,489 5.8 -15.0°
